Regional Weather Roundup
Issued by NWS Goodland, KS

Home | Current Version | Previous Version | Graphics & Text | Print | Product List | Glossary On
Versions: 1 2 3 4 5 6 7 8 9 10 11 12 13 14 15 16 17 18 19 20 21 22 23 24 25 26 27 28 29 30 31 32 33 34 35 36 37 38 39 40 41 42 43 44 45 46 47 48 49 50
000
ASUS43 KGLD 220959
RWRGLD

GOODLAND FORECAST AREA HOURLY WEATHER ROUNDUP
NATIONAL WEATHER SERVICE GOODLAND KS
400 AM MDT FRI AUG 22 2014

...OFFICIAL OBSERVATIONS...

CITY           SKY/WX    TMP DP  RH WIND       PRES   REMARKS
GOODLAND KS    PTCLDY    63  59  87 N5        30.00S
HILL CITY KS   CLEAR     69  66  90 CALM      29.88F
IMPERIAL NEB   MOCLDY    68  64  87 N3        29.99F
MCCOOK NEB     CLEAR     65  63  93 N3        29.94S
AKRON CO       LGT RAIN  62  58  86 W14       30.12R
BURLINGTON CO  MOCLDY    66  55  67 CALM      30.04R
LIMON CO       CLOUDY    59  56  89 N15       30.14F
$$

...UNOFFICIAL OBSERVATIONS...

CITY           SKY/WX    TMP DP  RH WIND       PRES   REMARKS
COLBY KS       MOCLDY    68  68 100 N8        29.97S FOG
LENORA KS        N/A     68  32  26 CALM        N/A
NORTON KS      CLEAR     68  64  88 CALM      29.90R
SHARON SPRINGS   N/A     70  62  74 CALM        N/A
WAKEENEY KS      N/A     70  65  84 MISG        N/A
KIT CARSON CO    N/A     69  52  54 MISG        N/A
YUMA CO          N/A     67  56  67 N6          N/A
$$


USA.gov is the U.S. government's official web portal to all federal, state and local government web resources and services.